Theta_e
314 314 317 319 322 322 324 321 314 318 318 317 320 318 315 321 325 320 324 322 318 322 329 342 343 341 345 346 351 352 351 355 356 350 348 349 346 347 346 344 347 348 349 348 345 346 344 341 337 335 335 329 328 329 328 329 327 330 333 335 333 331 334 336 337 339 337 333 327 326 331 335 335 334 334 335 336 336 336 336 335 336 336 337 339 339 339 339 340 340 339 339 339 339 338 337 336
314 317 322 323 321 322 326 321 318 323 318 313 315 320 319 321 324 321 328 323 320 334 341 348 354 354 352 352 353 351 353 351 349 350 348 345 347 347 345 345 346 347 349 347 346 346 344 341 337 336 335 330 328 328 327 325 326 330 334 335 335 335 337 337 337 338 335 330 329 332 336 336 333 332 332 334 335 336 336 336 335 335 336 337 338 338 338 338 339 339 339 339 339 338 336 334 333
314 318 323 324 320 322 330 322 319 322 314 310 313 321 321 321 325 323 325 318 322 341 347 351 356 355 354 358 353 349 353 349 347 348 348 347 347 346 345 345 345 348 348 346 346 346 345 341 339 337 334 331 327 329 329 326 329 332 334 335 336 337 337 337 336 336 335 334 336 337 338 336 336 336 335 334 333 335 335 335 335 336 336 337 338 337 338 338 339 338 338 338 336 334 331 331 331
314 318 321 324 321 326 337 329 327 324 315 315 315 320 325 325 326 322 319 317 320 328 340 357 358 350 356 365 353 351 353 349 348 347 348 346 347 347 345 346 346 349 347 346 346 345 345 342 339 337 335 331 327 330 329 328 333 333 335 336 336 337 337 337 336 335 337 338 338 337 338 337 338 338 337 337 335 336 335 335 335 336 337 337 337 337 337 338 338 337 337 335 331 330 329 330 330
313 318 321 323 323 326 333 328 329 323 314 318 318 319 327 326 323 320 317 316 316 316 336 360 359 350 355 359 353 354 353 351 349 345 347 346 347 347 345 346 347 349 347 346 346 346 345 343 340 338 336 332 328 331 329 330 333 332 335 336 335 338 338 338 337 337 337 339 338 337 338 337 338 338 337 337 337 337 337 337 336 337 338 337 337 337 337 337 337 336 335 332 329 329 330 331 331
314 320 321 320 320 320 325 323 325 324 317 319 321 325 328 323 319 318 317 316 321 331 347 358 356 357 359 354 352 353 349 351 350 346 347 347 347 346 346 346 346 348 347 346 347 346 346 343 340 338 338 334 329 331 331 331 332 331 335 335 334 337 338 337 338 337 338 339 339 338 338 337 338 338 337 337 337 337 336 336 334 334 336 336 336 336 336 336 336 334 332 329 328 329 331 331 331
316 320 321 321 321 320 328 329 329 329 322 318 322 328 325 320 318 317 320 316 324 345 355 355 355 364 363 352 352 349 345 348 348 346 347 347 347 345 346 345 346 348 346 347 347 346 345 343 340 339 340 337 332 334 334 332 331 331 334 335 334 337 338 338 338 336 338 340 338 338 338 337 337 338 337 337 336 335 334 333 330 329 333 335 335 335 336 336 333 331 329 328 328 330 331 331 331
318 320 322 325 325 322 329 330 327 327 323 319 320 323 323 321 319 319 322 314 321 345 354 355 359 371 365 353 356 349 343 347 346 347 347 346 347 346 346 345 346 347 347 347 346 346 345 343 341 339 341 339 336 336 335 333 333 333 335 335 335 336 337 337 337 337 337 338 338 338 338 338 338 338 336 335 334 334 333 331 328 325 327 332 334 335 335 333 331 329 328 327 329 331 331 331 331
317 317 319 324 324 322 326 325 321 322 322 321 319 321 323 320 321 322 320 320 334 352 355 355 357 361 361 356 357 348 343 346 346 347 347 347 347 346 346 346 347 347 347 347 346 346 345 344 342 340 340 340 339 337 335 336 335 334 333 332 335 336 336 335 336 337 336 338 338 337 338 338 338 338 336 334 335 336 335 331 327 323 320 326 331 333 332 331 330 328 327 328 330 331 331 331 330
319 317 319 323 322 321 324 323 321 321 321 321 318 318 319 316 318 318 316 326 346 357 354 355 358 355 357 356 353 347 345 345 346 347 346 347 346 346 346 346 347 347 347 346 346 345 345 344 342 341 340 339 340 338 336 336 335 334 333 331 335 336 336 335 335 337 337 338 338 337 338 337 336 336 336 335 336 337 335 332 329 323 318 322 327 330 330 330 329 327 328 329 331 332 331 331 330
324 320 321 327 324 322 322 325 327 326 324 320 317 317 317 315 315 317 325 335 348 359 355 356 363 358 355 354 350 346 344 344 346 345 345 346 346 346 345 346 347 346 347 345 345 345 344 343 342 341 340 340 339 337 337 336 334 334 333 332 335 336 337 336 334 336 337 337 337 337 336 336 336 335 336 336 337 337 335 332 330 325 319 319 325 328 329 328 327 327 330 331 332 332 331 330 330
324 322 327 332 328 326 325 327 328 328 325 320 322 320 316 315 315 326 343 346 352 362 356 355 360 360 359 356 350 343 342 344 344 344 344 345 345 345 345 346 346 346 346 345 346 345 344 343 342 341 340 340 338 337 336 335 333 333 334 334 335 336 337 336 334 334 335 336 336 334 332 334 336 336 337 337 337 336 335 334 330 327 321 318 322 326 327 327 327 329 331 332 332 332 331 330 329
325 324 327 326 324 326 323 324 324 326 327 323 323 318 314 316 314 329 349 353 356 358 349 350 355 359 361 354 349 343 343 343 342 344 343 343 344 344 345 345 345 345 346 346 346 345 344 343 341 341 340 340 338 337 337 335 334 334 336 335 336 336 337 336 334 333 334 335 334 333 334 336 337 337 338 337 337 335 334 334 330 328 324 318 320 324 325 326 328 330 332 332 332 331 331 330 329
325 324 326 320 319 324 320 321 322 321 324 323 319 316 316 317 316 330 353 360 354 349 345 347 351 359 359 353 350 345 344 342 341 343 342 344 344 343 344 344 345 345 345 345 346 345 344 343 342 342 341 341 338 337 338 337 337 337 337 336 336 336 336 336 334 334 333 333 333 334 337 338 338 338 339 337 336 334 333 332 330 329 325 319 319 322 325 327 330 331 332 332 332 331 331 330 329
320 324 329 324 319 320 319 320 320 317 318 320 315 315 321 321 322 337 352 359 352 345 347 347 346 353 356 361 363 347 343 342 341 343 343 343 343 343 343 343 344 344 345 345 345 345 344 343 343 343 342 341 338 338 338 338 338 337 337 336 335 334 334 334 333 333 333 332 333 336 337 337 338 338 339 338 335 333 331 331 330 329 325 321 321 323 326 329 330 331 332 332 331 332 331 330 329
319 324 326 324 320 318 318 318 315 315 318 319 314 312 323 325 329 343 344 346 350 347 350 351 346 349 352 362 363 346 342 342 342 344 343 343 342 342 342 342 343 344 345 344 344 344 344 344 343 343 342 340 339 338 339 340 338 337 337 334 332 334 334 333 331 333 334 332 333 336 337 337 337 338 338 338 336 333 331 331 330 329 326 322 323 325 328 329 330 331 332 331 331 331 330 330 330
316 323 325 321 320 318 317 318 313 314 316 318 315 312 322 330 334 345 345 346 352 354 354 352 348 351 355 355 350 343 342 342 343 344 342 343 342 342 342 341 342 343 344 343 344 344 344 344 344 343 341 341 340 339 340 340 338 337 336 332 333 336 336 334 332 333 334 332 334 336 337 338 337 338 339 337 336 334 332 331 330 329 326 323 324 327 329 329 330 331 332 332 331 330 330 329 330
315 323 324 320 320 319 319 320 315 313 314 316 315 313 319 333 342 342 346 353 354 357 356 351 350 350 350 347 343 342 342 343 344 344 344 344 343 343 342 342 342 343 343 343 343 343 344 344 344 343 341 342 341 341 341 340 338 338 335 333 335 336 336 336 334 334 335 334 336 336 336 337 337 338 339 337 335 334 332 331 330 329 327 324 325 328 329 329 329 331 331 332 332 331 330 329 329
320 321 320 323 323 319 318 319 316 313 314 315 315 315 314 326 340 336 345 359 352 356 355 349 351 350 346 343 341 342 342 343 343 343 344 343 343 342 342 342 342 342 341 342 343 343 343 343 344 343 342 342 342 342 341 339 338 338 335 332 333 335 337 337 335 335 335 336 337 336 336 335 336 337 338 337 335 333 333 332 331 330 329 326 324 327 329 328 329 330 331 332 333 332 331 330 329
320 320 319 324 321 317 316 315 314 314 314 314 314 316 314 315 322 328 347 357 350 359 363 357 355 350 347 342 340 342 341 342 342 343 344 343 343 342 341 342 341 341 341 342 343 342 342 343 344 343 342 342 342 343 340 339 338 338 338 334 333 336 338 338 337 337 336 336 337 336 337 335 335 335 336 337 335 333 332 332 332 330 330 327 325 325 328 327 328 330 331 333 333 333 332 330 329
317 318 321 323 316 316 318 314 315 315 313 314 314 314 315 312 320 341 353 346 347 358 362 366 362 350 345 342 340 342 341 341 341 342 342 341 341 340 341 341 340 341 341 341 342 342 342 343 344 342 341 342 342 342 340 339 338 338 339 336 335 336 338 338 338 338 337 337 336 336 337 336 335 334 334 336 335 334 333 332 331 331 330 329 325 324 326 326 327 330 331 333 333 332 332 330 329
316 317 319 319 314 315 317 315 316 314 312 313 314 314 313 312 327 353 353 339 345 356 356 360 357 347 344 342 341 342 341 341 341 341 341 339 339 339 339 340 340 340 340 340 341 341 341 341 342 341 342 342 342 341 340 339 338 338 340 338 336 337 338 338 338 339 338 337 337 337 337 336 336 334 334 335 334 333 334 332 331 331 331 330 327 323 324 326 328 330 332 333 333 332 331 330 328
316 317 316 317 315 315 316 315 314 312 312 312 313 313 314 313 319 335 346 339 333 338 349 354 350 345 344 342 342 342 342 341 341 341 339 338 338 337 337 339 339 339 340 340 339 340 341 339 340 340 341 341 340 340 340 339 337 337 339 339 337 335 336 338 338 338 337 337 337 337 337 336 335 333 334 334 332 330 332 333 331 331 331 331 328 324 324 326 328 330 332 333 332 332 331 330 329
315 317 316 316 315 315 314 315 314 312 313 312 312 311 313 316 311 319 333 330 326 334 346 350 347 344 343 343 343 342 342 341 341 340 338 338 338 336 336 338 339 339 340 340 339 339 340 339 339 339 340 339 339 340 340 339 337 336 338 339 337 334 334 337 338 337 337 337 337 337 336 335 333 332 333 333 331 329 330 332 332 331 331 331 330 327 325 327 328 330 332 333 333 332 331 330 329
313 316 316 315 314 315 314 313 313 313 314 311 312 312 314 315 310 314 317 322 338 347 347 347 346 345 345 344 344 342 341 341 340 339 338 338 337 335 336 337 337 339 340 339 339 339 339 338 338 338 339 339 339 339 339 339 336 334 337 339 337 334 335 337 338 338 337 337 337 336 335 333 332 331 332 331 330 329 329 330 331 331 331 331 331 329 327 327 329 330 331 333 333 333 331 330 329
315 315 315 314 314 314 313 313 313 312 313 312 313 314 315 312 311 314 311 325 348 351 346 348 347 347 346 344 343 341 340 340 338 337 337 337 336 335 336 336 336 339 339 339 339 339 339 337 337 337 337 338 339 340 338 338 336 333 337 338 336 335 336 337 338 338 338 338 338 336 334 332 331 331 330 330 330 330 328 329 331 331 331 331 331 330 329 328 328 329 331 333 333 333 332 331 330
315 314 314 313 313 312 311 313 313 311 312 313 313 313 315 312 313 315 313 331 350 349 348 349 347 348 346 345 342 339 339 338 337 337 336 336 335 334 335 336 336 338 339 339 339 339 339 337 336 334 336 338 339 340 338 337 336 334 337 338 336 336 336 337 338 338 338 338 337 336 335 333 332 331 329 329 330 331 328 328 331 332 331 331 330 330 330 329 328 328 329 332 333 333 333 331 331
313 312 313 313 313 311 310 312 312 311 311 313 313 312 314 311 314 315 314 335 351 349 351 348 348 349 345 345 341 338 338 336 336 336 335 335 335 334 334 336 337 338 339 339 339 340 340 337 337 336 337 339 338 338 338 337 336 336 338 337 336 336 335 336 337 338 338 338 338 336 335 333 333 331 330 330 331 332 331 328 329 330 330 331 331 330 330 330 329 328 329 331 333 332 333 332 331
312 312 313 316 317 313 311 313 312 311 312 313 313 311 315 314 315 312 312 336 351 347 351 350 348 349 346 345 341 339 338 336 336 335 336 336 336 335 334 336 337 338 338 338 338 339 339 336 337 338 338 339 338 337 338 338 337 337 337 336 335 334 334 334 335 338 338 339 338 337 335 333 333 331 331 331 332 333 334 331 328 327 329 330 330 330 330 331 330 329 329 331 332 333 333 332 331
312 311 312 315 316 314 312 313 311 311 312 313 312 312 318 318 316 312 316 340 354 348 350 350 348 348 346 346 342 341 339 337 336 335 336 336 336 336 334 335 336 338 338 337 338 337 337 335 336 338 338 339 339 339 338 337 338 337 337 336 334 334 334 334 335 338 338 338 337 336 334 333 333 333 332 332 333 334 333 330 326 325 328 328 329 330 330 330 330 330 330 330 332 333 333 332 331
313 309 314 316 312 314 316 315 313 312 312 314 312 312 318 316 314 311 318 341 357 352 350 348 348 348 345 346 343 341 339 337 337 335 336 336 336 336 335 336 336 337 338 337 337 336 335 334 334 336 337 340 340 339 339 338 337 336 337 336 335 335 335 334 335 337 338 337 337 336 334 333 334 334 333 334 334 333 331 327 324 324 326 327 329 329 329 330 330 331 330 331 332 333 333 332 331
317 310 318 318 311 316 318 315 314 313 311 313 312 313 318 314 313 309 314 339 356 352 350 347 347 348 345 347 344 342 340 337 337 336 337 337 337 337 336 336 336 337 337 336 336 336 336 336 335 333 336 339 339 339 339 338 336 336 336 336 336 336 335 334 334 336 337 337 336 335 333 333 335 335 334 335 334 331 329 328 327 326 326 326 328 329 329 329 329 330 331 331 331 332 333 331 330
322 316 318 317 311 314 314 312 313 313 312 313 312 314 316 313 311 309 316 340 353 350 350 347 347 346 345 347 344 343 341 338 337 335 336 337 337 337 337 337 337 338 338 337 337 336 337 337 336 334 336 337 337 337 339 338 337 336 336 335 334 334 334 334 334 335 336 336 335 333 333 334 335 335 334 335 334 331 330 331 331 329 328 327 327 328 328 328 328 330 330 330 331 332 332 331 330
319 319 318 314 312 312 311 313 313 312 313 313 313 313 316 313 310 310 314 329 344 348 346 344 346 345 344 345 345 344 341 340 339 336 336 336 336 337 337 337 337 338 338 337 337 337 337 337 337 335 335 335 334 335 336 337 336 335 335 333 330 330 333 334 334 336 337 337 335 333 333 334 335 335 334 335 334 332 332 332 332 332 331 329 328 328 328 328 329 330 330 330 331 332 332 331 330
319 320 317 313 313 312 312 315 314 312 314 313 313 314 316 312 310 312 313 317 332 340 342 344 345 345 345 345 344 344 342 341 339 336 336 336 336 337 336 336 336 337 337 337 337 337 338 337 336 336 335 334 334 334 335 336 336 335 335 333 331 330 333 335 335 336 337 337 335 334 335 335 335 335 334 334 334 333 333 333 333 333 333 332 331 330 330 330 330 331 331 330 331 332 331 330 330
321 321 319 315 312 312 313 314 314 313 313 315 315 314 315 315 315 318 318 321 327 329 334 344 345 344 345 344 345 343 342 342 338 335 335 335 336 336 336 336 335 336 336 336 337 337 337 336 336 336 335 335 334 335 335 335 336 336 336 335 335 334 334 336 336 336 337 336 335 335 336 335 336 336 334 335 334 334 333 333 334 333 333 333 332 332 331 331 331 331 331 331 332 331 330 329 329
317 316 316 314 311 314 314 313 315 312 312 318 316 314 318 321 324 324 324 328 330 328 332 338 341 342 343 344 345 343 342 340 335 334 335 335 335 335 335 335 334 335 335 335 336 336 337 336 335 335 335 335 334 334 334 335 335 336 336 335 335 335 335 335 335 336 336 336 336 335 335 335 336 336 335 335 335 334 334 334 333 333 333 333 333 332 331 331 331 331 332 331 331 330 329 329 328
314 314 314 312 311 314 314 312 314 312 314 318 315 318 324 325 327 327 328 332 332 332 333 333 335 337 341 345 347 343 343 340 334 334 334 333 335 335 335 334 334 334 334 334 334 335 335 335 335 334 334 334 334 334 334 335 335 335 335 335 335 334 334 334 335 336 336 336 336 335 335 334 336 336 335 336 336 334 334 334 333 333 333 332 332 332 331 331 331 331 332 331 330 329 329 328 328
316 315 313 313 313 314 315 316 316 314 314 317 318 323 324 322 325 328 329 332 332 332 332 332 332 333 335 339 344 344 345 344 338 335 334 333 334 334 335 334 333 333 333 333 333 334 334 333 333 333 333 333 333 334 334 335 335 335 335 334 334 334 333 333 334 335 335 335 335 335 335 335 336 336 336 336 336 334 334 334 333 333 333 332 332 331 330 331 332 331 332 330 329 329 329 328 328
320 317 314 316 315 314 317 320 320 315 314 316 318 323 323 321 325 328 329 332 333 332 332 331 331 332 332 331 335 338 342 344 340 335 334 333 333 334 335 334 333 333 332 332 332 333 333 333 333 332 332 333 333 333 334 334 335 335 335 334 333 333 333 333 333 334 334 333 333 334 335 335 336 336 336 336 334 334 333 333 333 333 332 331 331 331 331 331 332 331 331 330 328 329 328 328 328
316 319 319 319 317 317 317 317 320 320 318 316 317 323 326 324 325 326 329 332 332 333 332 331 331 331 332 332 332 333 335 336 336 335 334 332 333 334 334 334 334 333 332 332 331 331 331 331 332 332 332 333 334 334 334 334 334 334 334 334 334 333 333 333 333 334 334 334 333 334 335 335 336 336 336 335 334 333 332 331 333 333 332 332 331 331 332 332 332 331 331 330 329 329 329 328 328
314 317 319 320 321 319 316 316 322 325 319 313 314 322 322 323 326 326 328 333 333 333 332 332 332 331 331 333 333 333 332 333 333 333 333 333 333 333 333 333 334 333 333 333 332 330 330 331 331 332 332 333 334 334 334 334 334 334 334 334 333 332 332 333 333 334 334 334 334 333 334 335 335 334 334 334 333 332 331 332 333 332 332 332 331 331 331 332 332 332 331 330 330 330 329 328 328
314 315 316 318 319 317 315 315 317 321 318 314 317 321 318 321 327 326 328 333 333 333 333 332 331 331 331 331 331 330 330 330 330 330 331 332 332 332 332 332 331 330 331 333 333 332 331 332 332 333 333 333 333 333 334 335 334 334 334 334 332 331 331 331 332 334 334 335 334 334 333 333 333 334 333 333 332 331 331 332 332 332 332 332 332 331 331 331 332 332 332 331 330 330 329 328 328
316 316 315 314 316 316 318 316 314 319 319 319 322 324 323 325 326 326 328 333 333 333 333 332 331 330 330 330 329 328 327 326 326 326 327 328 329 329 329 328 327 327 328 330 332 332 333 333 332 332 333 333 332 334 335 335 335 334 334 332 331 330 330 330 331 333 334 334 334 334 334 332 332 333 334 332 332 331 331 332 332 332 332 332 333 333 331 330 332 333 331 331 330 330 330 329 328
317 316 314 314 315 316 318 317 321 323 315 318 326 323 323 324 324 328 330 332 335 335 333 332 331 330 328 328 327 325 325 324 323 323 324 324 325 326 326 326 326 326 327 328 330 331 332 332 333 332 333 333 333 335 336 336 335 334 334 331 331 331 330 330 330 331 333 333 333 333 332 331 330 330 332 333 332 332 331 331 332 331 332 333 333 333 332 329 331 333 331 331 330 330 330 330 329
314 313 313 316 317 319 321 320 323 321 313 318 325 323 326 326 326 331 332 333 336 335 333 331 330 329 327 326 324 322 322 321 320 320 321 321 321 322 323 324 325 326 326 328 329 329 329 330 331 332 332 333 334 335 336 336 335 334 334 333 332 331 331 330 330 331 331 331 331 331 330 329 329 329 330 331 331 332 331 331 332 332 331 333 333 333 332 330 329 332 332 331 331 330 330 330 329
311 314 315 316 320 325 330 330 325 319 318 324 324 322 328 326 327 333 333 333 334 333 332 330 327 327 326 324 321 319 319 318 318 318 318 318 318 318 320 321 321 323 325 326 327 326 327 327 328 330 330 331 333 334 335 335 334 334 334 334 333 331 331 330 329 330 330 330 330 330 330 329 329 329 328 329 330 331 331 331 332 333 331 332 331 331 332 330 329 332 332 331 331 331 330 330 330
314 319 316 314 321 325 328 331 326 318 320 325 321 320 324 324 329 334 332 331 331 331 331 329 326 325 323 322 320 318 317 316 315 315 315 315 316 316 317 317 318 318 320 322 323 324 325 326 326 327 328 328 330 331 332 332 332 333 334 334 332 331 330 330 329 329 329 329 330 330 330 330 330 329 329 329 329 330 331 332 333 332 331 331 330 330 331 329 330 332 332 332 332 331 331 331 330
315 319 317 316 321 320 319 323 323 322 322 318 315 320 328 332 333 334 331 330 329 328 327 326 324 323 321 320 318 316 315 314 313 313 313 313 313 314 314 315 315 315 316 317 319 321 323 324 325 326 326 327 328 328 328 329 329 330 332 333 332 331 331 330 330 330 329 329 329 329 330 330 330 330 330 330 329 329 330 332 333 333 331 331 330 330 331 331 331 331 331 332 332 331 332 331 331
313 316 317 318 321 318 316 318 319 321 320 314 313 324 335 336 334 332 330 329 327 325 323 322 320 319 319 317 315 315 313 313 312 311 311 311 312 312 313 313 313 313 314 314 315 317 319 321 323 324 326 326 326 326 326 328 328 328 330 331 331 332 331 331 330 330 330 329 329 330 330 330 330 330 330 330 330 329 330 332 333 333 332 331 330 330 330 332 332 330 330 332 332 332 332 332 331
312 314 316 318 323 323 319 320 322 318 318 320 321 327 334 334 332 330 330 327 324 322 320 319 318 317 317 315 314 313 312 311 311 310 311 311 311 311 311 312 312 312 312 313 314 315 316 318 320 322 325 326 327 326 326 328 328 328 329 330 331 332 331 330 330 331 331 330 329 329 330 330 330 330 329 328 329 330 331 332 332 332 331 331 331 329 329 331 332 331 330 330 331 332 331 331 331
312 312 314 315 320 326 322 320 325 323 323 326 327 328 329 329 328 326 328 326 322 321 320 317 317 316 315 315 313 313 312 311 311 310 310 310 310 310 310 310 311 310 311 311 312 313 314 315 317 320 323 325 326 327 327 328 328 328 328 329 330 330 330 329 329 330 330 330 330 329 329 329 329 329 329 328 328 330 331 331 331 331 331 330 331 330 329 331 332 332 331 329 329 331 331 331 331
314 312 315 315 315 322 322 316 319 325 327 322 322 329 330 328 329 327 326 324 321 320 319 317 317 315 315 314 313 312 311 310 310 309 309 309 309 309 309 309 309 309 310 310 310 311 312 313 314 317 320 323 324 326 327 328 329 329 328 328 328 327 328 328 328 329 329 330 330 330 330 330 329 329 329 329 329 330 331 331 331 332 331 330 330 331 331 331 332 332 331 330 330 332 332 331 331
316 314 315 313 311 317 321 319 320 325 327 322 322 331 333 330 331 329 326 325 322 319 318 317 316 315 314 313 312 311 310 310 309 309 309 309 308 308 308 308 308 308 308 308 309 309 309 310 311 313 315 317 320 323 325 326 328 328 328 328 328 327 327 327 328 328 328 329 330 330 330 330 329 329 329 329 329 331 331 331 332 333 332 330 330 331 332 332 332 333 332 332 332 333 332 332 332
314 316 314 314 316 318 316 318 320 319 322 325 327 329 330 330 330 330 329 326 323 319 317 316 315 314 313 312 311 310 309 309 308 308 308 308 308 308 307 307 307 307 307 307 307 307 308 308 309 310 312 313 317 321 324 325 326 327 328 328 328 328 327 327 327 327 328 329 330 330 331 330 330 329 328 329 330 331 331 330 331 332 332 330 330 331 333 332 333 333 332 332 332 333 332 332 332
312 314 314 318 325 322 317 319 321 320 323 326 329 329 330 330 329 330 329 324 321 319 317 315 314 313 312 311 310 309 308 308 307 307 307 307 307 307 306 306 306 306 306 306 306 306 306 306 307 308 310 312 315 318 321 324 326 326 327 328 328 328 328 327 327 327 327 328 329 330 331 330 330 329 328 329 330 330 331 331 331 332 331 330 330 331 332 332 333 333 332 332 332 333 332 332 332
314 318 317 318 321 317 316 317 317 322 328 327 329 331 329 327 326 328 326 321 319 318 316 315 313 312 311 310 309 309 308 307 307 306 306 306 306 306 305 305 305 305 305 305 305 305 305 305 305 306 307 308 310 313 317 322 325 326 326 328 328 328 328 328 328 327 327 327 328 329 330 330 330 329 328 328 328 329 331 332 331 331 330 331 331 331 332 332 332 332 331 331 331 332 332 331 330
322 330 325 322 320 316 318 319 316 322 329 327 327 330 327 324 323 323 322 319 317 315 314 313 312 311 310 309 309 308 307 307 306 305 306 306 305 304 304 304 304 304 304 304 304 304 304 304 304 305 305 306 307 309 312 317 321 324 325 327 328 328 328 328 328 328 328 328 328 328 329 330 330 329 329 329 328 329 331 332 330 330 330 331 332 331 332 332 332 331 331 330 330 331 331 330 330
Wind_Speed
3 3 3 1 3 2 2 3 1 2 2 0 2 1 4 5 2 3 5 3 0 2 3 0 2 2 3 4 5 5 3 2 3 4 3 4 4 21 20 12 25 27 24 22 21 21 20 22 22 22 21 20 22 22 24 24 24 23 21 21 22 23 22 22 23 23 23 23 24 25 24 24 25 24 24 25 24 23 23 22 22 23 22 21 21 20 20 19 19 20 20 20 20 20 20 21 21
4 3 3 1 2 1 1 3 2 3 3 2 3 4 4 2 1 5 6 3 2 2 1 3 6 6 7 6 5 3 2 3 1 2 1 2 11 19 15 15 27 26 24 23 22 22 21 22 22 22 21 21 21 22 23 23 23 22 21 21 22 22 22 22 22 23 22 23 24 24 24 23 24 25 24 25 24 23 23 22 22 22 21 21 21 20 20 19 18 18 18 17 17 18 18 18 18
4 3 2 0 2 2 1 4 2 1 2 3 5 4 2 1 5 7 5 5 5 3 1 2 6 5 5 6 4 2 1 3 2 1 1 6 10 14 14 18 27 24 23 24 22 22 22 22 21 21 21 20 21 22 22 22 21 20 20 20 20 20 21 21 21 22 22 22 22 23 23 23 23 24 23 23 24 23 23 23 22 21 21 21 20 20 19 19 18 17 16 16 17 17 16 14 14
4 2 2 1 1 3 4 3 2 4 2 4 3 5 3 4 6 5 5 6 7 2 1 1 4 2 4 5 1 2 1 2 1 1 1 3 5 14 17 21 25 22 23 23 22 22 22 22 21 21 20 20 21 21 21 21 20 20 20 19 20 20 20 20 20 20 21 21 22 23 23 23 23 23 23 22 22 21 22 22 22 22 21 20 20 20 19 18 17 17 16 17 17 15 14 13 13
3 2 2 1 2 1 3 2 2 4 4 4 2 5 4 6 6 4 6 7 6 4 2 2 2 1 2 3 2 2 1 0 2 2 3 3 8 17 18 22 24 20 23 23 21 22 22 22 21 21 20 20 20 20 21 20 20 20 20 19 20 19 19 19 19 19 19 20 21 22 22 22 23 23 22 21 21 21 21 21 21 22 20 20 20 20 19 18 17 16 16 17 16 13 12 13 14
3 3 3 4 2 1 3 1 2 3 5 5 2 6 5 6 6 3 5 7 4 3 1 2 1 2 2 2 2 2 1 2 4 4 6 8 13 19 18 23 23 20 23 22 21 22 22 22 21 21 20 20 20 20 20 19 19 19 19 19 19 18 18 18 18 18 19 19 20 21 21 21 22 22 21 20 21 21 21 20 20 21 21 20 20 19 18 18 17 17 17 17 14 12 12 13 14
3 2 2 4 1 1 3 2 4 4 5 5 4 5 6 4 3 3 7 6 1 1 2 2 2 5 2 2 2 4 5 2 3 5 10 13 18 20 20 23 22 21 22 21 21 21 22 22 22 21 19 19 19 19 19 19 19 18 18 19 18 17 17 17 17 17 18 19 19 20 20 20 20 20 19 20 21 20 19 19 18 19 20 19 19 19 18 18 18 18 17 15 13 12 12 12 14
4 1 1 3 1 2 3 2 3 4 4 4 5 6 9 5 1 4 5 4 1 1 2 2 3 5 1 3 2 5 9 4 3 8 14 16 20 20 21 23 21 21 20 20 20 20 21 21 21 21 20 18 18 19 18 18 18 18 19 18 18 16 16 17 18 17 18 18 18 19 19 19 19 19 18 19 20 19 18 17 17 18 19 18 18 18 18 18 18 17 16 14 12 11 12 12 13
4 2 0 2 2 1 2 3 3 3 5 6 6 8 10 4 1 2 3 4 1 2 1 2 3 4 1 5 2 4 8 5 8 12 15 18 21 21 20 21 21 21 21 19 20 20 20 20 20 20 19 18 18 18 18 17 17 18 18 18 18 17 15 17 19 18 18 17 17 18 19 18 18 18 17 18 18 17 16 16 16 16 18 18 18 18 18 18 17 16 15 13 12 11 12 12 13
3 2 2 1 2 0 3 3 3 3 6 6 6 9 9 4 2 2 2 3 2 3 0 1 5 4 3 4 2 3 2 9 14 15 16 19 19 20 20 19 19 20 20 19 20 20 19 19 19 19 19 18 17 17 17 16 17 18 17 17 18 18 17 18 19 19 19 17 17 18 18 18 17 17 16 16 16 15 14 15 16 15 17 18 18 18 18 17 16 15 14 12 11 12 12 13 13
2 2 2 3 3 1 3 3 4 4 6 5 7 10 8 4 3 2 1 2 2 4 2 1 4 4 4 4 2 1 6 10 15 19 17 18 19 20 20 18 18 18 19 19 20 19 18 18 18 19 18 18 18 16 16 15 16 17 16 17 18 19 18 18 20 20 19 18 18 18 19 19 17 16 15 15 15 14 14 14 15 14 16 17 19 18 17 16 15 14 13 12 12 13 14 14 15
2 2 4 4 2 3 4 3 5 5 7 6 6 8 2 5 6 4 4 4 3 4 3 1 3 4 4 2 2 3 7 7 13 20 18 18 19 18 18 18 18 17 19 20 20 19 18 18 18 18 18 18 18 16 15 14 15 16 16 17 18 18 17 18 19 19 19 18 18 18 19 18 17 16 15 15 14 13 13 14 14 14 14 16 18 18 17 16 15 14 13 13 13 14 15 15 15
3 2 4 2 3 3 3 2 4 4 6 4 4 6 0 5 4 6 6 4 5 5 2 3 4 5 4 1 3 4 4 6 13 19 18 18 17 16 16 16 17 17 19 20 20 19 18 19 19 18 17 18 18 16 15 15 16 16 16 17 18 18 17 17 18 19 18 18 18 19 19 17 16 16 15 14 13 13 13 13 14 14 13 16 18 18 17 16 14 14 13 14 15 15 16 16 15
2 3 4 2 1 1 3 1 3 1 4 5 3 5 2 2 1 4 7 5 3 3 0 2 5 4 3 1 2 3 4 9 16 17 18 17 16 16 16 16 16 17 18 19 20 19 18 18 19 18 17 17 17 16 15 15 15 16 15 16 17 17 17 17 17 18 17 17 18 19 18 16 16 15 14 13 12 12 14 13 14 13 13 16 18 19 18 16 14 13 14 15 16 16 16 16 14
3 2 4 2 0 1 2 2 2 3 4 4 3 5 4 3 2 4 3 5 2 1 3 4 3 2 2 4 3 5 9 14 17 18 19 17 16 16 15 16 16 17 17 18 19 19 18 18 18 19 18 18 17 16 14 13 13 15 14 14 16 16 16 16 16 17 16 17 18 18 16 15 15 14 13 11 11 12 14 14 14 13 13 16 19 20 19 16 13 13 15 16 17 17 16 16 14
2 3 4 2 1 2 2 3 2 2 5 5 4 4 4 3 2 3 2 4 4 1 4 2 2 3 5 6 4 12 18 19 20 21 21 20 18 17 15 16 16 16 16 18 19 18 18 18 18 19 19 18 17 16 14 12 12 13 13 14 16 16 16 15 15 16 15 16 17 17 15 15 15 13 12 11 11 13 14 14 14 13 14 16 18 20 20 16 13 13 15 17 18 17 16 15 14
2 4 4 0 2 3 3 3 3 2 5 6 6 5 4 3 3 1 2 5 6 3 4 2 3 2 5 3 9 22 24 23 24 23 22 21 19 17 15 16 17 16 16 17 18 17 17 17 18 19 19 18 17 16 15 13 13 13 13 14 15 15 15 14 15 15 15 16 17 16 15 15 14 13 13 11 11 12 13 13 13 14 14 15 18 19 20 17 15 14 15 17 18 16 15 15 14
2 3 2 1 3 3 4 6 5 2 4 6 8 6 2 1 1 1 3 7 5 5 5 3 4 4 4 9 21 28 27 25 25 23 21 19 17 15 15 16 16 16 16 16 16 16 17 17 18 19 19 18 17 16 15 15 15 14 13 14 15 15 14 13 14 14 15 16 16 16 15 15 14 13 13 12 12 12 12 12 12 13 14 15 17 18 19 17 16 16 15 16 16 15 14 14 13
3 3 2 4 5 4 5 6 4 3 4 6 9 6 1 2 3 1 2 3 3 5 4 4 5 6 9 16 24 26 26 24 22 22 19 17 17 16 15 15 15 14 14 15 15 16 17 17 18 19 19 18 17 16 16 16 17 15 14 15 15 15 15 14 14 15 15 15 16 15 15 14 13 12 12 11 11 12 12 12 11 12 14 15 16 17 17 16 16 16 15 15 15 14 13 13 13
2 3 2 5 5 4 5 5 6 6 5 6 8 5 3 3 1 1 4 4 2 3 2 2 3 5 9 12 18 23 23 21 20 20 17 16 18 19 17 17 18 17 17 16 16 16 16 17 18 19 19 19 18 17 17 18 18 16 15 14 15 16 15 15 15 15 15 15 15 14 14 14 13 12 11 10 11 11 12 12 12 11 13 14 14 16 16 15 15 15 14 14 14 14 13 13 13
2 3 4 6 3 3 6 6 8 7 5 4 6 3 2 4 1 3 6 5 3 4 5 5 7 10 12 11 14 19 19 19 19 18 16 15 18 19 18 19 20 20 21 19 18 17 18 18 19 20 19 19 19 18 18 19 18 17 16 15 16 16 16 15 15 15 15 15 14 14 14 14 14 13 12 12 11 10 11 12 13 12 12 14 13 15 16 15 14 14 13 13 14 14 14 14 14
2 2 5 6 3 4 6 5 6 3 2 3 5 3 1 1 2 3 7 6 3 5 5 8 10 12 14 14 14 15 15 15 16 16 17 17 19 17 18 19 21 20 21 21 21 21 21 22 22 22 20 19 19 18 18 19 18 18 17 17 17 17 16 16 15 15 15 15 14 15 15 14 15 14 13 13 12 11 10 10 13 12 12 13 13 14 15 15 14 14 13 12 14 15 15 14 13
2 3 3 5 4 5 6 5 5 2 2 3 2 5 2 2 2 1 5 5 5 5 5 8 10 11 15 16 14 14 13 13 14 17 18 19 20 16 18 20 21 22 23 22 22 22 22 23 23 23 22 21 21 19 19 19 19 19 18 17 18 19 18 17 17 17 16 16 15 15 15 15 16 15 14 13 12 11 11 11 12 14 12 12 13 13 15 15 14 14 12 12 15 15 15 14 13
2 3 4 5 5 7 7 7 8 5 6 6 1 5 5 0 2 0 2 5 4 3 3 9 11 13 15 14 12 12 12 13 14 18 20 22 20 17 19 20 18 19 23 24 24 22 22 23 24 24 23 23 23 22 22 21 21 22 19 18 19 21 21 20 20 19 18 17 15 15 16 16 16 16 15 14 12 11 12 13 13 15 13 12 13 14 15 15 14 13 12 12 14 15 15 14 12
3 5 4 4 4 7 7 7 9 7 8 6 4 8 7 2 1 2 3 5 2 2 6 11 13 12 12 12 12 11 10 12 13 16 19 19 17 15 17 19 18 19 22 24 25 24 25 25 25 25 25 26 25 24 25 24 24 23 22 21 21 21 21 20 20 20 20 19 17 17 16 16 16 16 14 12 12 12 12 14 15 16 15 13 13 14 14 15 14 13 12 12 12 13 14 13 12
5 6 4 4 6 7 6 7 8 6 5 2 4 9 8 4 1 2 3 1 3 7 9 11 13 12 11 10 10 10 10 11 12 15 17 16 15 15 16 18 20 22 24 23 24 25 26 26 27 27 28 27 26 25 26 26 25 25 24 23 22 22 22 20 20 20 20 20 19 18 17 17 17 16 13 11 11 12 12 14 16 16 16 14 13 13 14 14 14 13 12 11 10 11 12 12 12
5 5 4 6 7 7 4 6 7 3 4 2 3 8 6 6 1 2 4 2 6 9 9 9 11 11 10 10 8 9 9 10 13 15 15 14 15 16 18 19 21 23 24 23 24 25 26 27 28 29 29 27 27 27 27 28 27 26 25 23 22 22 22 21 20 20 21 21 20 18 18 18 17 14 13 12 12 12 12 14 17 16 16 16 14 13 13 13 13 13 12 10 9 9 10 11 11
4 4 2 6 6 7 4 6 7 1 3 6 8 5 4 5 1 4 5 2 6 10 10 8 9 9 9 10 9 8 7 10 15 16 14 15 17 19 22 23 23 23 25 27 27 27 28 28 28 28 28 27 28 29 29 29 28 26 25 24 24 23 21 20 20 20 21 21 21 20 19 18 16 14 13 14 14 13 13 13 16 17 17 16 15 14 13 13 13 13 12 10 8 7 8 10 11
2 4 1 7 6 5 5 5 5 4 2 5 8 1 5 3 2 5 5 1 4 9 10 8 8 7 8 9 8 7 7 10 13 14 17 19 20 21 24 26 26 26 28 28 27 28 30 30 29 28 27 27 28 29 28 28 27 25 25 24 25 23 21 20 20 20 20 21 22 21 19 18 17 15 14 14 14 14 14 13 15 16 17 16 16 15 14 13 13 14 13 11 9 8 8 10 11
0 3 2 4 6 5 4 2 2 4 2 3 6 1 6 6 6 8 5 5 7 8 8 7 7 6 7 8 7 7 8 10 12 15 18 19 21 22 24 26 27 28 28 27 28 30 31 31 30 28 28 28 27 26 27 26 26 25 25 25 24 24 22 21 20 20 20 21 22 22 21 19 18 16 15 14 14 14 14 13 14 15 16 17 16 16 15 14 14 14 13 12 10 8 8 9 11
0 1 1 2 1 3 6 3 1 4 2 3 5 1 6 6 7 9 5 7 10 9 8 8 7 6 6 7 8 8 8 11 14 16 18 20 21 21 23 25 27 28 28 28 30 31 32 31 30 29 28 27 25 25 25 26 25 25 26 25 24 24 22 21 20 20 21 22 22 23 21 19 19 17 16 15 15 15 14 13 13 14 16 17 18 17 16 15 14 14 13 13 11 9 9 10 11
2 2 2 3 2 4 8 4 1 3 1 3 5 2 5 6 7 7 4 5 8 8 8 8 8 8 7 7 8 8 7 10 14 15 18 21 21 22 23 25 28 30 30 31 31 30 31 30 29 30 28 26 24 23 23 25 25 25 25 24 23 23 22 21 21 21 22 22 23 23 21 20 19 18 17 16 16 16 15 14 13 14 15 18 19 18 17 16 15 14 13 12 12 11 11 12 13
3 2 3 1 2 2 3 2 2 1 1 3 3 2 3 3 6 8 4 4 6 7 7 7 8 8 8 7 7 7 6 7 10 13 18 22 22 23 23 26 28 31 32 32 31 30 30 28 29 31 29 26 25 24 23 25 26 26 25 24 23 22 22 22 22 22 23 23 23 23 21 21 21 19 18 17 17 18 17 15 14 14 15 17 18 18 17 16 15 15 13 13 12 13 14 14 15
3 2 2 1 2 1 1 2 5 4 3 2 3 0 4 2 5 10 8 4 3 3 3 4 6 5 6 6 6 7 6 7 9 14 20 22 22 22 23 24 27 29 31 32 31 31 28 25 26 29 27 26 27 26 25 25 26 26 25 24 23 23 23 23 23 24 24 24 24 23 21 21 22 21 19 19 18 19 18 16 16 15 16 17 18 18 17 16 16 15 15 14 14 14 15 16 16
3 1 3 1 0 0 1 2 3 5 4 0 2 2 5 4 8 9 10 8 4 3 2 2 3 3 4 5 5 6 7 8 8 11 17 19 21 22 22 22 23 27 29 30 30 29 25 21 22 25 25 26 26 26 25 24 24 24 24 23 23 23 23 23 24 24 25 25 25 24 22 22 23 22 20 20 20 20 20 19 18 17 17 18 20 20 19 19 17 16 16 16 16 15 15 17 17
7 4 5 4 1 1 4 4 5 2 3 1 3 2 4 8 9 10 10 8 8 7 5 2 3 2 1 0 2 3 4 6 4 5 11 16 20 22 21 20 20 23 26 27 27 26 25 21 20 23 25 25 24 24 23 22 23 23 23 23 23 24 25 25 24 25 25 24 25 24 23 23 24 22 21 21 21 21 22 22 20 18 19 20 22 23 22 22 20 18 18 18 19 16 14 15 16
7 5 5 4 2 2 5 4 6 3 0 3 3 5 8 9 9 9 7 9 13 12 10 5 3 2 2 2 0 0 2 3 2 4 10 13 18 18 17 17 17 20 23 24 24 25 25 22 20 22 23 23 22 22 21 21 23 23 23 24 25 25 26 25 24 25 25 25 25 25 24 24 25 24 23 23 22 23 24 24 21 20 21 22 23 24 24 22 20 20 19 19 19 17 15 15 17
6 6 5 2 1 3 6 4 6 3 1 3 4 11 9 8 8 9 9 12 14 12 11 9 6 4 3 2 2 2 1 2 1 4 8 11 14 13 12 14 15 17 20 20 20 20 20 18 17 17 18 18 19 19 20 21 23 24 24 24 25 24 24 24 23 24 25 25 26 26 25 25 25 25 25 25 23 23 25 25 23 21 22 23 23 24 24 21 19 21 22 19 16 16 17 18 21
5 4 5 1 2 3 5 4 5 3 1 1 7 12 6 6 6 9 12 10 8 9 11 10 9 9 7 3 1 2 3 2 2 3 5 8 9 8 9 9 11 13 14 14 14 13 13 12 11 12 13 14 15 17 18 20 22 24 24 23 22 21 21 22 22 23 24 24 25 27 27 26 26 27 27 27 24 25 27 26 23 22 23 24 23 24 24 21 21 24 25 21 17 16 16 19 22
4 4 5 2 3 0 1 3 5 4 2 3 9 9 4 6 6 9 11 8 8 9 9 9 11 12 10 7 5 2 0 3 4 3 2 2 3 3 4 5 6 9 9 10 10 11 11 11 13 14 13 14 14 15 16 17 18 20 20 20 18 18 17 18 19 20 21 22 23 26 27 26 27 29 29 28 26 26 28 26 23 23 24 24 23 24 24 22 23 26 26 24 22 20 17 19 21
1 3 6 3 3 3 3 3 4 4 4 5 8 6 5 6 7 9 9 8 11 10 10 13 14 12 10 10 11 8 6 5 4 4 5 6 6 5 5 7 8 8 9 11 12 14 16 17 18 19 17 16 15 14 15 16 16 17 16 15 14 14 13 13 16 18 18 20 23 24 26 28 29 29 29 28 27 27 28 25 24 25 26 24 24 25 25 23 25 28 27 25 26 23 20 21 20
2 3 6 7 6 5 3 3 5 5 4 2 5 5 3 4 7 8 7 9 12 10 12 15 15 13 12 12 12 10 9 8 6 6 6 7 7 7 8 9 11 11 9 8 8 7 9 12 15 16 16 16 16 16 16 17 17 16 15 14 13 12 13 13 15 18 18 20 23 24 26 27 28 27 27 26 25 26 27 25 24 26 26 25 24 24 24 25 27 29 28 27 27 25 22 23 22
2 5 8 8 7 5 2 1 3 2 1 0 4 6 2 2 6 6 5 9 11 10 13 14 13 13 12 11 11 10 11 10 10 10 9 9 9 9 9 10 13 15 12 8 8 8 8 8 9 12 15 18 19 19 19 19 19 18 15 15 12 10 11 11 13 15 18 20 22 24 27 26 25 25 24 24 24 25 26 24 23 26 26 25 25 25 26 28 30 29 28 28 27 26 25 25 25
3 6 9 9 7 6 4 4 4 2 3 2 4 5 4 1 3 4 4 8 10 10 12 13 12 13 12 12 12 12 13 12 12 12 12 12 14 14 13 14 15 14 11 8 6 9 10 9 7 10 16 18 18 20 20 19 20 19 14 9 7 8 7 9 14 16 18 20 22 25 29 27 25 25 25 25 26 26 26 23 23 25 26 26 28 28 28 29 30 28 28 29 28 28 26 26 27
5 6 8 8 7 7 6 6 3 1 1 3 6 3 5 0 2 3 4 6 9 9 11 12 12 13 13 12 13 13 12 13 13 12 12 14 17 18 14 14 14 12 12 9 3 5 9 10 10 11 15 18 18 21 23 21 18 16 12 9 11 17 17 15 17 20 19 18 21 24 26 26 25 25 26 27 28 27 26 24 22 24 27 28 29 29 28 28 30 29 29 30 29 29 27 26 28
5 7 7 4 5 5 5 5 3 3 3 3 6 3 5 1 3 2 2 4 6 7 8 9 11 12 12 12 13 13 12 11 12 11 13 16 18 19 17 17 18 17 13 9 5 4 5 5 6 9 12 14 15 18 21 22 18 13 14 17 21 26 24 19 18 20 19 18 20 22 21 23 24 25 25 26 27 25 25 24 23 24 27 27 28 28 27 28 30 29 28 30 30 29 28 27 26
6 8 7 6 6 5 4 3 3 4 1 5 5 1 5 1 2 2 2 3 4 4 6 8 10 11 11 10 11 12 11 10 10 10 13 17 19 21 23 22 22 22 18 14 11 10 10 11 12 10 9 9 10 11 14 18 17 16 21 26 27 26 23 22 22 21 19 19 21 21 20 22 24 27 27 26 25 25 24 24 23 24 26 26 27 27 27 29 30 29 28 29 29 29 29 28 26
6 5 5 5 3 4 4 4 3 4 3 5 3 3 5 2 2 2 4 5 6 6 6 8 10 9 9 9 10 10 10 10 11 11 12 16 18 20 23 22 22 23 23 21 19 18 16 14 14 15 15 14 13 13 14 15 15 17 24 27 26 25 23 24 24 22 21 21 21 20 20 22 24 27 28 25 25 25 25 23 22 24 25 26 27 27 28 31 30 29 29 29 29 29 29 28 27
5 5 6 6 2 2 2 2 0 2 3 2 3 2 4 2 1 5 6 7 8 8 8 8 8 9 9 10 10 10 10 11 11 11 11 13 14 16 19 20 21 22 23 24 24 22 20 18 16 15 15 16 15 15 15 14 15 18 24 26 25 25 25 26 26 24 23 23 22 21 22 23 24 25 27 26 26 26 26 24 24 26 25 25 26 26 28 30 28 27 29 29 29 29 29 29 28
5 5 6 5 3 3 2 1 0 1 2 1 4 2 2 1 2 5 7 8 9 9 8 8 8 9 9 9 10 10 11 11 11 11 10 11 14 16 16 17 19 20 22 24 25 24 23 21 20 18 16 16 15 13 14 14 15 19 24 26 25 25 27 28 28 26 25 24 24 24 24 25 26 26 26 27 26 26 27 26 25 25 24 24 25 25 27 28 27 26 27 29 29 28 29 29 28
4 4 6 5 4 5 3 3 2 2 1 3 4 3 1 1 1 3 7 9 9 9 7 6 7 6 6 7 9 11 12 11 11 11 11 12 15 16 16 18 19 20 22 23 24 25 24 23 23 21 18 17 16 14 15 16 16 18 22 25 25 27 29 29 28 27 27 26 25 25 25 25 26 27 25 24 24 25 26 25 25 24 23 23 23 23 27 27 25 25 26 27 29 28 28 28 27
1 2 6 3 5 6 4 3 4 5 3 3 3 1 1 0 2 2 7 10 8 6 5 6 7 7 6 7 9 10 10 11 11 10 11 13 16 16 16 17 18 21 23 24 24 24 24 23 22 22 19 17 17 15 15 18 19 19 19 22 24 25 26 26 26 27 27 25 24 26 26 25 26 26 24 23 23 23 24 23 23 23 21 21 21 23 27 27 25 25 24 26 28 27 27 27 26
2 2 4 4 3 8 6 2 1 4 5 1 1 2 0 1 1 1 7 9 6 5 6 7 8 8 9 9 9 10 10 11 11 9 9 12 15 15 15 15 17 20 22 23 23 23 22 22 21 21 20 18 17 16 14 17 20 21 20 20 22 23 22 23 24 24 25 24 23 24 25 25 25 24 24 24 23 22 22 21 22 23 21 20 22 24 26 26 25 24 23 25 27 26 25 26 25
5 3 6 3 3 6 5 3 3 4 4 0 2 2 2 2 1 3 7 7 7 7 7 8 9 10 10 10 10 11 11 10 10 10 10 12 14 16 17 17 18 19 20 20 22 22 23 22 22 22 21 20 19 18 15 15 18 21 21 20 21 22 22 22 23 22 24 24 23 23 24 24 24 24 25 25 23 22 21 19 22 24 22 22 24 25 25 25 24 23 23 24 25 24 24 25 24
5 5 5 4 3 2 2 3 2 2 3 1 1 1 1 2 1 3 7 7 7 6 6 8 9 9 9 9 10 10 10 9 9 9 9 11 14 17 18 19 20 20 20 20 21 22 24 26 25 24 22 21 21 19 17 15 15 17 20 20 21 23 23 23 22 22 24 23 22 24 25 24 23 24 24 24 22 20 20 20 23 24 23 23 25 25 24 23 22 22 24 25 24 24 24 24 24
5 4 3 3 3 4 3 2 3 4 3 2 2 1 2 1 1 2 7 7 7 6 5 7 8 8 7 7 8 9 9 8 8 8 8 12 16 18 19 19 20 20 20 21 22 22 24 26 28 27 25 24 22 21 19 17 15 15 16 17 19 22 23 22 20 20 23 23 23 26 26 24 23 23 25 25 22 20 21 22 24 25 24 23 24 24 23 22 22 23 24 25 24 23 24 23 24
3 3 2 1 2 2 3 2 2 4 5 3 3 3 3 1 2 2 8 8 6 6 6 7 7 8 7 7 7 8 8 8 8 8 9 12 15 18 19 19 20 21 22 23 24 24 25 27 29 28 27 26 26 24 21 18 16 15 15 15 16 17 19 19 19 20 22 23 25 27 26 24 22 22 25 26 24 21 21 22 23 24 23 22 23 24 23 22 23 24 24 23 23 23 23 23 22
5 3 3 4 3 4 4 2 1 3 4 4 5 3 2 2 4 3 8 8 6 7 7 8 7 8 8 7 8 8 8 8 9 9 10 13 15 17 18 19 20 22 24 25 25 26 27 29 29 29 29 28 28 27 25 21 17 16 17 16 14 13 13 15 16 19 21 22 25 28 26 23 23 23 25 26 25 23 22 22 22 22 21 20 22 23 23 22 22 22 23 22 22 22 22 22 21
Wind_Direction
88 80 61 43 351 321 325 53 100 323 89 303 277 227 255 232 232 287 285 274 246 283 272 261 116 70 93 123 154 155 122 142 160 134 208 274 120 155 156 151 158 154 150 153 155 157 160 158 153 149 146 145 146 144 141 140 140 135 130 130 130 130 129 130 133 134 134 133 130 127 125 125 125 125 123 122 121 119 118 117 117 117 117 116 113 110 106 104 101 99 98 97 96 94 93 92 91
95 89 52 39 5 45 237 74 104 323 55 306 272 185 250 275 216 238 241 237 197 198 228 88 90 65 61 77 101 95 46 11 59 143 285 107 126 152 157 155 157 152 149 152 155 158 160 158 154 150 146 146 147 145 143 141 140 135 132 132 131 130 131 133 134 135 133 131 128 125 125 126 125 122 120 119 121 120 120 118 117 118 120 119 116 113 111 109 105 102 100 96 94 95 95 93 91
106 101 37 118 9 45 76 46 107 57 102 241 269 231 252 234 222 232 235 248 240 188 133 66 70 57 55 51 45 64 329 332 49 68 45 130 132 150 157 157 156 150 150 153 157 161 160 158 155 151 147 147 147 146 144 142 139 135 133 131 132 131 132 132 132 133 132 130 127 127 128 125 122 120 119 118 118 119 120 119 120 120 120 121 118 116 114 112 108 104 101 98 97 96 96 92 89
109 103 354 216 40 26 63 43 141 121 154 216 262 257 223 207 237 259 268 262 253 239 281 32 53 15 88 95 115 101 124 304 101 109 137 152 147 153 154 155 154 148 151 155 159 162 159 157 155 151 148 147 148 146 145 142 138 136 134 134 135 133 133 132 131 132 131 130 129 129 128 125 123 122 122 120 118 118 117 117 121 122 121 122 121 119 118 115 111 107 103 100 99 96 94 90 85
110 118 354 57 97 26 97 76 116 123 206 193 225 262 227 213 239 271 276 271 261 245 231 102 70 313 86 110 159 109 115 203 137 167 136 121 148 152 153 154 152 147 152 157 160 162 157 155 153 151 147 146 149 147 146 144 141 141 136 138 139 133 133 132 132 132 132 133 131 130 129 127 125 124 123 120 120 120 119 118 120 122 122 124 125 123 121 119 114 111 107 103 99 94 90 86 85
108 115 31 47 98 172 114 119 160 206 229 171 194 261 237 216 226 268 306 289 262 217 203 94 133 147 77 18 95 95 304 181 145 168 148 135 151 156 157 157 153 150 155 159 162 161 156 155 153 149 145 145 149 147 147 146 144 143 138 139 137 134 134 133 133 133 134 135 133 131 130 129 126 125 124 125 126 124 123 121 122 125 126 128 128 127 124 122 119 116 111 106 101 94 88 85 90
105 110 20 54 41 27 108 176 195 233 244 176 198 259 260 233 207 334 346 315 282 88 36 82 129 111 82 339 73 21 16 141 141 157 158 148 155 159 160 158 153 152 156 160 162 159 156 157 153 147 142 143 146 146 147 147 146 143 140 138 136 135 136 134 134 135 137 136 134 133 131 130 128 128 127 131 131 125 123 120 120 125 129 129 128 128 126 125 123 120 114 109 103 94 88 87 93
99 108 21 94 47 17 104 225 227 220 249 219 225 256 270 277 24 345 335 311 321 22 21 45 60 83 325 5 74 358 25 69 131 155 160 152 155 157 159 158 151 152 157 161 159 155 156 156 151 146 143 142 143 144 146 145 146 144 142 140 137 139 139 137 137 137 139 136 135 136 133 132 130 129 129 132 130 122 120 118 118 123 130 132 132 131 129 128 125 122 116 111 105 94 90 90 96
70 55 85 103 117 33 46 288 265 231 256 261 258 258 267 282 64 290 286 289 277 114 28 323 35 92 165 35 54 331 27 93 138 146 153 149 153 152 155 155 151 152 156 159 154 152 156 155 149 146 145 142 142 143 144 145 145 146 145 144 140 140 140 139 140 140 138 136 138 139 136 135 133 130 129 129 125 120 119 117 116 121 130 136 139 139 135 132 128 124 118 111 104 97 93 95 102
46 28 138 91 116 76 329 284 264 252 252 261 268 263 265 268 174 233 272 267 212 117 233 330 56 101 126 68 36 326 70 139 137 134 141 144 147 148 148 150 149 150 152 153 150 151 155 154 149 148 146 143 144 144 145 148 150 150 148 148 146 144 143 143 146 145 140 139 142 141 140 138 135 131 128 128 125 123 123 119 116 119 130 138 143 144 141 136 131 126 118 111 103 98 98 103 107
44 347 101 78 86 155 246 247 270 264 269 296 288 272 262 232 162 225 207 187 128 110 210 39 73 122 97 80 64 39 149 146 135 131 135 142 144 145 144 145 147 145 145 146 148 150 152 155 154 150 149 148 149 148 150 154 156 154 151 151 150 147 147 148 150 150 144 143 145 145 144 140 135 132 131 131 129 130 129 122 117 119 129 140 146 146 143 137 132 125 117 108 100 98 103 110 109
96 321 70 93 148 184 206 228 271 278 298 308 289 289 262 154 150 175 156 150 129 121 231 211 133 137 79 51 82 112 151 146 130 130 136 143 143 142 140 143 144 141 142 144 147 149 153 157 157 156 156 155 154 155 158 160 161 158 153 153 152 150 151 151 153 153 150 148 149 148 143 140 136 135 136 134 134 135 131 124 120 120 126 140 147 147 142 137 131 123 114 106 100 102 109 112 108
127 156 93 129 195 178 175 206 273 304 312 277 245 285 225 134 165 178 145 109 123 124 264 207 127 90 79 57 99 123 165 145 126 129 139 140 138 136 132 137 139 140 144 146 147 149 155 157 158 162 161 160 158 160 164 164 163 159 155 154 154 154 154 154 155 156 156 154 152 147 143 141 139 138 137 136 137 136 131 125 122 121 125 139 147 146 142 137 131 121 111 107 104 107 112 112 107
152 154 122 170 217 156 170 220 281 299 286 264 256 289 332 57 165 150 126 99 100 135 54 117 112 86 88 118 121 163 179 139 126 129 134 131 131 128 125 132 137 142 147 148 147 150 155 158 161 161 162 163 163 163 167 167 163 159 156 154 156 158 159 159 158 158 159 159 154 146 144 144 143 141 137 136 137 134 131 127 123 123 125 136 145 145 141 136 130 119 111 109 110 113 116 114 107
169 132 97 125 295 311 212 216 220 165 257 275 288 306 23 34 95 96 127 129 105 189 94 78 98 96 143 185 195 182 160 136 129 129 126 122 122 123 125 131 136 144 148 149 149 152 155 158 161 161 163 164 165 166 166 167 165 160 155 155 157 161 163 163 161 160 161 161 154 149 149 148 147 146 141 137 135 130 130 129 125 125 128 137 143 143 138 134 129 119 114 113 115 118 119 116 109
142 103 70 100 215 262 221 212 173 159 258 264 288 317 46 7 70 94 254 140 114 68 77 65 12 93 164 213 193 147 143 133 128 126 119 116 117 121 128 134 141 146 149 152 150 153 155 158 161 163 165 164 166 167 164 166 167 161 158 161 162 163 163 162 162 161 161 160 157 156 156 153 153 154 148 141 135 129 129 131 128 127 131 139 142 141 137 132 127 120 118 117 119 122 122 118 111
81 82 71 61 205 209 207 206 175 172 269 282 326 2 62 350 21 105 310 71 106 81 54 37 350 87 180 220 127 131 132 128 125 120 116 115 117 123 134 144 149 149 151 153 153 155 156 158 163 166 167 167 166 166 166 165 165 167 164 165 167 166 163 162 162 159 156 157 161 164 161 158 161 162 154 144 137 131 130 132 131 131 133 141 144 142 139 134 128 122 119 119 122 125 124 121 113
74 96 119 211 197 200 192 191 199 212 284 298 328 353 65 123 104 144 26 36 58 65 37 23 13 27 76 97 116 124 124 124 122 116 116 119 125 136 146 153 150 147 150 152 155 158 159 161 165 168 169 169 168 167 169 165 168 173 168 168 170 170 167 164 162 158 157 160 165 168 164 163 163 164 158 147 142 136 133 135 136 136 135 141 148 146 144 141 134 126 121 118 122 127 129 125 118
115 117 144 221 205 215 202 194 219 232 278 301 310 318 345 179 154 119 83 33 38 78 33 26 46 52 74 97 111 117 120 122 122 119 121 129 144 153 151 147 142 143 149 153 159 161 163 164 167 169 170 171 171 172 172 170 173 174 171 172 172 174 174 171 168 165 166 167 169 169 166 164 164 163 160 152 148 141 138 140 142 143 139 141 150 153 151 148 142 133 125 119 121 127 133 133 125
166 123 162 242 220 244 239 217 234 235 267 299 297 316 339 261 165 68 129 108 60 146 181 87 100 112 101 103 110 116 120 123 128 129 130 139 155 160 152 146 147 153 159 160 160 163 166 165 168 173 176 176 176 178 177 177 176 173 173 175 175 177 179 177 175 174 175 177 175 172 167 165 165 162 163 163 158 147 142 146 150 150 147 145 152 159 159 155 149 140 129 122 122 129 136 138 131
181 137 188 241 197 251 260 222 236 246 243 251 277 324 312 265 85 101 134 104 327 242 211 178 159 145 126 119 121 125 128 130 134 138 139 148 169 164 146 148 156 161 162 162 163 167 171 171 174 178 181 180 179 182 180 180 179 175 175 177 179 180 182 180 179 179 180 183 182 180 177 171 167 165 171 173 168 162 153 151 156 160 157 152 156 164 164 159 153 143 134 125 123 129 134 138 134
179 212 207 225 174 243 269 232 234 235 181 231 303 325 235 248 56 123 132 123 243 238 208 178 158 148 138 133 135 135 134 136 140 147 150 163 183 163 135 148 160 163 162 165 170 173 177 178 179 180 180 181 184 184 181 183 181 179 179 179 183 184 185 183 183 184 183 187 188 188 186 176 171 173 179 176 176 181 176 165 162 167 167 159 158 166 167 163 155 145 138 127 122 126 129 134 136
197 270 252 241 220 240 277 283 272 1 36 235 254 301 287 87 36 160 142 164 217 244 211 158 137 136 137 136 140 142 140 146 151 158 161 173 186 160 142 158 162 165 165 170 177 177 180 181 180 181 181 183 187 184 182 187 187 185 183 181 186 188 188 187 187 188 189 192 191 193 192 184 180 181 182 179 183 191 191 187 175 172 172 167 164 166 169 167 158 148 142 129 122 126 127 131 136
175 258 289 267 237 237 263 285 291 322 304 257 215 316 295 102 22 61 203 244 261 276 191 125 120 130 135 137 140 143 146 154 158 163 169 178 183 164 160 170 165 168 170 174 179 179 184 184 182 183 184 187 188 186 183 188 192 190 186 187 190 191 192 191 190 192 194 195 194 197 198 193 191 187 183 182 187 193 195 196 186 176 173 171 169 168 172 171 162 154 148 134 125 126 129 133 138
182 226 264 282 254 249 271 287 292 298 285 283 339 316 290 293 38 169 242 282 326 91 111 111 121 132 137 143 141 142 147 151 152 162 176 182 176 163 170 177 171 176 179 180 180 181 188 189 187 186 188 191 190 188 186 189 195 193 191 193 193 193 195 195 194 196 197 195 196 200 201 201 200 193 187 187 190 191 195 197 189 178 174 174 171 170 176 176 168 160 155 142 130 127 130 136 141
210 210 236 272 279 278 291 288 283 287 279 317 333 293 293 321 288 262 304 266 131 105 110 119 129 138 144 145 141 143 147 149 152 163 181 186 172 163 173 181 180 185 188 187 184 186 191 192 191 191 193 194 192 191 190 191 196 195 194 197 195 193 197 198 199 201 201 198 198 200 205 207 206 200 192 193 195 190 191 194 189 181 176 177 174 172 178 182 176 170 166 154 139 131 133 139 145
195 187 239 253 275 293 297 283 284 294 265 189 198 255 294 345 352 274 303 158 135 111 116 130 137 145 149 142 139 146 148 151 158 163 174 186 181 172 176 183 186 192 193 191 192 191 194 196 196 197 197 195 192 194 193 194 198 196 196 197 196 196 199 201 202 203 204 202 201 202 207 210 210 208 200 196 197 192 189 191 190 187 182 180 177 175 178 183 183 180 176 167 151 141 139 144 151
166 151 286 279 293 299 266 269 277 249 249 196 177 235 325 6 76 227 265 192 141 125 126 141 148 150 144 140 141 149 154 154 161 166 173 186 189 182 183 188 189 195 199 197 197 196 197 201 202 203 201 197 197 198 196 197 198 197 197 197 197 199 202 205 205 206 206 204 204 204 207 211 215 217 211 202 198 195 193 192 194 193 190 186 182 179 179 180 183 183 181 175 163 152 147 150 158
138 136 253 297 343 325 262 264 258 173 212 183 155 279 318 304 240 264 281 206 135 126 135 151 157 151 139 142 144 153 163 160 169 181 184 186 191 190 190 194 193 196 202 202 201 201 203 205 206 207 205 203 204 202 199 198 198 198 200 200 199 202 206 207 205 207 209 204 204 204 205 212 217 217 214 209 202 201 201 198 198 197 194 191 187 184 181 180 182 185 184 180 172 164 157 155 165
203 112 141 302 3 342 289 309 251 165 164 151 137 269 278 264 257 268 263 155 131 127 148 162 162 154 144 149 149 158 169 172 185 194 192 190 194 197 197 198 197 200 204 204 205 206 208 209 208 209 208 207 206 203 201 200 200 200 203 203 201 204 208 208 203 206 210 208 206 205 204 212 217 214 212 211 207 207 206 200 198 198 195 192 192 189 186 184 184 186 187 184 181 178 171 166 173
132 91 66 351 79 284 299 321 129 152 155 111 116 215 268 281 272 266 257 167 149 150 168 169 169 162 151 161 159 165 178 187 196 197 197 196 198 201 200 199 199 204 206 207 210 211 211 210 210 212 211 207 205 204 204 202 204 204 204 204 204 206 209 208 204 205 211 213 212 208 207 213 215 213 212 210 208 208 203 194 192 194 193 192 193 192 190 190 188 189 191 191 190 190 184 178 180
48 123 302 350 162 259 304 316 130 172 262 62 109 208 280 297 291 294 288 193 163 160 178 174 175 168 159 170 169 172 179 191 201 203 204 204 203 205 204 202 202 206 209 211 214 214 214 212 210 215 213 206 205 206 205 206 209 208 207 206 206 209 211 210 208 209 213 216 216 212 212 213 213 212 211 210 208 206 199 190 187 187 190 191 192 194 195 197 195 194 198 203 202 195 188 184 185
5 117 200 259 158 250 309 330 334 262 333 17 82 177 263 299 316 334 341 211 185 174 185 184 182 170 166 176 174 176 173 184 205 209 209 209 209 209 208 207 208 211 214 215 217 217 217 214 211 215 213 209 209 210 210 211 212 210 210 209 209 212 214 214 213 213 216 216 216 216 215 213 214 213 210 209 208 205 200 194 192 190 189 191 191 195 199 202 203 204 207 212 214 202 191 187 184
320 39 130 201 175 168 291 301 329 26 54 347 26 143 239 280 347 349 351 320 260 205 185 196 202 173 167 182 177 176 172 187 208 209 209 210 212 213 213 212 213 216 217 218 221 222 221 217 215 216 214 214 214 215 215 214 214 212 214 215 214 215 217 217 215 216 217 216 216 219 219 217 217 217 212 209 209 209 206 202 204 201 198 197 195 195 199 205 209 215 217 214 215 209 197 188 183
192 171 120 129 331 150 266 260 285 19 30 300 73 273 270 355 9 354 351 352 356 327 335 170 214 202 180 178 180 182 183 201 215 210 208 208 213 216 216 216 216 217 219 221 223 225 225 224 222 220 219 219 216 217 217 216 215 214 215 217 217 218 219 219 217 218 218 217 218 220 221 222 224 223 217 213 212 213 212 211 214 213 209 206 203 199 198 205 212 218 221 216 209 208 203 188 177
162 164 130 132 116 244 253 255 258 302 15 252 173 224 345 29 20 5 353 5 33 2 348 98 149 207 223 134 193 191 195 224 254 225 213 210 214 217 217 219 220 220 222 224 226 226 228 228 227 226 225 224 219 216 215 213 213 214 215 215 216 218 219 218 218 219 220 220 222 222 221 223 226 226 224 220 217 218 218 218 220 222 218 213 210 206 200 202 211 217 220 215 203 194 193 183 172
131 119 104 120 112 283 263 261 275 260 159 277 163 93 42 38 24 9 358 18 32 14 3 23 52 84 77 51 13 78 193 253 295 211 213 213 217 219 219 222 223 225 227 229 229 228 229 230 230 230 230 229 223 218 214 213 213 213 215 215 214 216 217 218 219 220 221 221 223 226 226 226 226 225 227 226 222 221 222 222 225 228 223 217 215 211 203 199 207 217 213 207 199 183 172 173 172
112 119 108 92 148 261 263 248 293 307 147 281 77 78 47 34 29 15 21 35 30 13 14 13 11 44 83 115 119 120 160 301 321 196 206 212 221 224 223 226 226 230 233 235 237 237 237 238 239 240 240 239 231 223 218 217 220 219 219 219 216 217 218 219 220 223 223 221 223 228 230 230 227 224 226 227 225 225 225 224 226 229 223 218 217 213 205 197 200 210 204 194 194 183 170 171 171
101 118 118 117 226 268 288 281 317 360 99 310 72 80 38 358 15 28 33 41 37 22 25 23 24 32 24 20 88 148 170 251 258 226 211 210 222 226 228 237 240 244 249 253 257 261 262 264 270 270 266 260 248 236 227 222 225 226 226 226 223 221 223 225 226 229 229 227 226 228 232 233 230 227 227 226 224 225 227 225 224 225 220 216 215 210 203 196 196 203 201 194 187 178 172 175 176
94 120 128 195 258 265 286 295 325 0 46 82 95 91 37 350 360 32 32 32 43 35 30 33 38 39 26 14 8 4 275 261 262 268 268 249 258 250 259 290 295 290 301 314 316 319 315 308 311 312 304 292 275 258 245 236 233 234 233 234 234 231 232 233 233 235 236 234 232 232 235 236 232 230 229 227 223 224 227 226 223 221 217 214 212 207 201 196 196 198 199 196 184 169 165 176 181
211 157 141 171 221 190 208 293 335 354 23 80 102 77 20 6 14 24 16 25 41 32 32 39 38 38 37 34 30 22 14 354 334 343 356 7 13 10 1 5 2 345 338 345 352 355 351 344 338 334 326 315 301 284 268 257 251 249 245 243 243 239 238 235 231 233 234 236 240 240 240 238 235 231 229 225 221 222 227 226 222 217 213 210 208 207 203 197 197 198 198 195 187 178 171 176 182
262 222 175 177 173 181 236 350 28 29 10 48 100 76 1 344 26 26 4 31 41 27 35 41 37 36 38 38 35 32 32 30 23 17 17 22 29 30 16 12 22 25 14 354 343 333 325 326 326 324 319 307 294 283 275 268 259 256 252 245 239 233 233 230 226 227 227 232 241 246 244 239 235 231 225 222 221 222 224 225 221 217 211 207 208 210 207 201 197 199 199 195 192 190 180 176 182
242 234 188 175 151 148 208 45 69 64 252 231 90 107 168 323 30 18 356 44 46 32 40 41 37 36 34 35 33 32 33 34 36 34 31 32 39 46 40 39 47 48 34 350 303 276 265 271 287 298 296 285 278 277 274 267 259 256 254 249 247 244 241 244 243 238 234 234 239 246 246 240 235 232 224 219 220 220 220 221 221 219 213 207 209 210 209 205 201 200 200 197 195 193 185 179 182
225 228 171 159 152 160 176 140 134 216 244 337 27 103 130 65 35 343 338 54 48 35 42 42 41 37 33 33 32 34 34 33 36 36 33 33 35 41 52 59 58 54 41 5 304 271 264 253 254 285 289 281 277 276 271 264 258 254 253 258 279 286 278 272 264 253 246 241 239 244 245 239 234 231 223 218 218 217 216 217 220 222 216 209 208 208 209 209 204 200 200 199 197 196 194 190 186
230 200 155 155 154 160 154 123 127 274 16 310 322 53 98 300 305 329 348 52 44 33 40 42 43 40 37 34 30 33 34 33 35 33 33 33 30 32 44 53 44 41 41 29 352 263 265 251 238 254 272 275 271 267 263 260 258 249 241 247 264 262 256 256 256 252 250 246 240 242 241 237 232 228 223 221 218 216 215 215 219 223 218 210 209 209 210 211 206 201 199 199 199 199 202 201 194
210 146 112 98 89 90 100 106 116 51 57 242 282 16 97 276 314 4 11 36 34 30 40 43 44 43 42 36 29 28 28 30 32 30 31 30 27 26 33 40 33 30 31 16 347 324 326 315 280 255 254 260 263 264 260 253 248 238 234 243 252 253 248 247 250 249 250 249 241 237 234 233 234 230 225 222 219 216 214 213 218 223 217 212 213 214 214 213 208 203 203 203 203 203 204 204 203
141 114 81 62 51 47 58 61 93 80 359 252 264 24 105 146 309 36 47 43 42 39 44 41 40 40 40 39 33 28 26 25 25 28 29 26 23 21 25 30 26 23 21 13 3 356 355 349 336 321 301 288 280 274 261 245 236 231 238 244 247 247 244 244 246 244 247 249 241 234 229 230 232 229 225 223 220 218 216 213 217 222 220 216 220 222 220 217 210 205 206 206 206 207 206 205 206
99 103 100 90 24 21 40 358 49 102 248 263 288 48 88 118 225 103 89 82 65 53 50 42 37 36 35 38 37 33 29 25 23 24 21 18 18 17 19 21 19 18 16 11 9 3 357 350 336 329 325 317 302 283 268 248 231 230 241 246 247 245 243 244 244 241 245 249 242 233 228 225 223 221 220 218 217 217 217 216 217 221 222 222 224 224 223 220 212 206 206 206 207 208 209 207 207
86 99 114 114 46 37 65 315 52 159 234 273 333 25 75 79 131 107 103 94 77 66 59 47 35 28 28 31 31 31 32 30 28 25 18 13 11 10 12 14 13 13 11 8 7 4 1 356 344 331 321 314 304 290 281 264 244 242 246 246 248 248 246 243 241 239 240 244 243 238 231 223 220 219 217 217 217 214 215 218 220 221 221 223 224 222 224 223 214 207 206 207 209 209 210 210 209
139 135 139 139 113 107 159 256 255 229 234 297 330 10 91 154 110 114 118 101 86 79 67 57 45 27 22 25 25 28 30 31 31 27 22 16 9 6 6 8 9 8 8 8 7 5 1 358 354 345 329 320 314 307 300 283 261 253 248 244 246 249 249 243 237 236 235 235 239 239 235 228 227 227 223 223 222 213 212 218 223 223 221 222 222 220 225 225 217 212 209 208 210 211 212 212 213
162 159 136 145 152 139 172 192 167 191 198 329 342 32 132 211 29 86 119 107 92 90 81 69 60 36 26 26 23 27 27 27 28 24 23 17 11 7 3 4 5 4 5 6 6 6 4 1 1 358 349 337 328 315 299 289 278 263 250 246 247 248 247 242 236 238 238 236 239 240 237 231 231 233 230 226 224 214 211 217 225 225 222 224 223 220 224 224 217 213 212 213 213 211 212 213 214
179 146 110 150 185 138 128 169 161 155 130 4 355 49 323 118 28 24 104 102 90 94 87 69 56 34 29 27 21 25 25 23 24 22 20 14 10 8 4 1 1 0 2 4 4 4 3 2 3 5 3 352 341 327 304 293 290 281 266 258 256 253 250 243 237 238 241 242 244 243 241 237 235 235 231 224 220 216 216 220 226 227 223 224 223 220 221 222 218 215 214 216 216 212 212 214 215
123 129 154 210 178 117 115 149 78 96 115 25 317 162 74 88 132 103 103 93 76 64 49 52 48 32 29 24 19 21 19 19 20 19 17 11 6 4 2 2 1 360 359 359 360 2 2 2 4 7 8 4 355 345 324 306 297 293 289 281 273 266 261 254 245 240 241 244 247 246 245 243 238 233 229 225 219 216 219 221 225 226 221 219 223 221 220 221 219 216 213 215 215 213 212 214 216
125 164 185 175 80 91 105 117 32 50 112 265 309 151 161 160 181 154 123 102 78 59 43 45 40 32 29 21 17 16 13 14 14 15 14 7 2 0 0 2 2 2 359 355 356 0 3 5 7 6 5 3 360 356 344 323 308 299 295 290 283 276 269 263 256 249 246 244 245 245 241 240 237 231 227 225 218 214 216 218 223 227 222 218 222 221 219 219 219 216 215 215 214 213 212 213 217
122 156 153 110 114 123 86 121 136 100 119 183 30 26 232 185 212 175 144 121 102 82 60 56 48 39 31 18 16 13 10 11 9 10 8 2 1 359 359 2 1 1 1 357 357 0 4 8 9 7 4 2 1 1 355 341 328 314 300 291 288 285 279 273 267 261 254 245 241 239 236 236 237 232 227 222 216 213 214 218 224 227 223 219 220 218 215 216 218 216 215 213 212 213 213 214 218
52 91 73 47 128 152 143 141 147 136 143 161 128 191 247 198 271 202 146 130 123 113 87 74 62 50 39 23 17 10 9 10 6 5 2 0 2 359 359 2 360 359 1 1 2 2 3 5 7 7 6 5 4 4 1 352 345 336 316 300 293 288 284 282 278 270 260 251 245 240 238 241 240 232 226 221 216 214 217 220 223 223 220 218 219 218 215 216 217 217 217 214 214 215 217 219 220
71 83 99 54 69 112 133 89 69 121 138 146 141 193 240 305 321 149 129 124 125 123 106 87 72 58 45 29 20 13 9 7 2 2 0 1 2 360 359 1 1 1 3 4 5 4 3 3 4 4 3 3 3 3 3 357 350 345 330 311 299 292 287 286 282 273 265 258 252 246 241 242 241 230 223 220 217 219 222 222 221 220 218 217 218 218 217 218 218 218 219 220 220 220 220 222 222
143 135 160 153 121 119 117 101 343 93 124 158 152 175 224 5 6 89 116 116 117 115 104 89 74 60 47 30 22 16 8 5 3 2 2 3 3 360 357 359 2 5 4 5 5 4 4 4 3 2 1 1 1 1 360 356 351 345 334 319 304 293 291 290 283 275 270 261 253 248 243 241 240 229 221 220 220 222 223 220 218 220 219 216 216 216 216 219 219 219 220 220 221 221 220 221 223